| time (UTC) | temp F | wind direction | speed MPH | gust MPH | rain 1hr in | rain 24hr in | rain mn in | humidity % | barometer mb |
| 20260906053004 | 54 | 29 | 0.0 | 0.0 | 0.00 | 0.00 | 0.00 | 94 | 1019.8 |
| 20260906051512 | 54 | 360 | 0.0 | 0.0 | 0.00 | 0.00 | 0.00 | 94 | 1019.9 |
| 20260906050016 | 54 | 360 | 0.0 | 0.0 | 0.00 | 0.00 | 0.00 | 94 | 1019.9 |
| 20260906044518 | 55 | 360 | 0.0 | 0.0 | 0.00 | 0.00 | 0.00 | 94 | 1019.8 |
| 20260906043026 | 55 | 26 | 0.0 | 0.0 | 0.00 | 0.00 | 0.00 | 94 | 1019.9 |
| 20260906041504 | 55 | 27 | 0.0 | 0.0 | 0.00 | 0.00 | 0.00 | 94 | 1019.8 |
| 20260906040021 | 56 | 26 | 0.0 | 0.0 | 0.00 | 0.00 | 0.00 | 93 | 1019.6 |
| 20260906034513 | 56 | 27 | 0.0 | 0.0 | 0.00 | 0.00 | 0.00 | 93 | 1019.5 |
| 20260906033020 | 56 | 27 | 0.0 | 0.0 | 0.00 | 0.00 | 0.00 | 93 | 1019.4 |
| 20260906031546 | 57 | 29 | 0.0 | 0.0 | 0.00 | 0.00 | 0.00 | 93 | 1019.4 |
| 20260906030006 | 57 | 360 | 0.0 | 0.0 | 0.00 | 0.00 | 0.00 | 92 | 1019.3 |
| 20260906024508 | 58 | 27 | 0.0 | 0.0 | 0.00 | 0.00 | 0.00 | 92 | 1019.4 |
| 20260906023016 | 58 | 27 | 0.0 | 0.0 | 0.00 | 0.00 | 0.00 | 92 | 1019.3 |
| 20260906021522 | 59 | 27 | 0.0 | 0.0 | 0.00 | 0.00 | 0.00 | 92 | 1019.3 |
| 20260906020027 | 59 | 360 | 0.0 | 0.0 | 0.00 | 0.00 | 0.00 | 92 | 1019.3 |
| 20260906014511 | 60 | 30 | 0.0 | 0.0 | 0.00 | 0.00 | 0.00 | 92 | 1019.4 |
| 20260906013014 | 60 | 31 | 0.0 | 0.0 | 0.00 | 0.00 | 0.00 | 92 | 1019.4 |
| 20260906011523 | 61 | 28 | 0.0 | 0.0 | 0.00 | 0.00 | 0.00 | 91 | 1019.3 |
| 20260906010026 | 62 | 28 | 0.0 | 0.0 | 0.00 | 0.00 | 0.00 | 91 | 1019.3 |
| 20260906004530 | 62 | 30 | 0.0 | 0.0 | 0.00 | 0.00 | 0.00 | 90 | 1019.3 |
| 20260906003010 | 63 | 25 | 0.0 | 0.0 | 0.00 | 0.00 | 0.00 | 88 | 1019.4 |
| 20260906001514 | 64 | 39 | 0.0 | 0.0 | 0.00 | 0.00 | 0.00 | 87 | 1019.4 |
| 20260906000022 | 65 | 28 | 0.0 | 0.0 | 0.00 | 0.00 | 0.00 | 85 | 1019.3 |
| 20260905234531 | 66 | 34 | 0.0 | 0.0 | 0.00 | 0.00 | 0.00 | 84 | 1019.1 |
| 20260905233035 | 67 | 360 | 0.0 | 0.0 | 0.00 | 0.00 | 0.00 | 83 | 1019.1 |
| 20260905231510 | 68 | 30 | 0.0 | 2.0 | 0.00 | 0.00 | 0.00 | 80 | 1019.5 |
| 20260905230018 | 69 | 360 | 0.0 | 4.0 | 0.00 | 0.00 | 0.00 | 78 | 1019.3 |
| 20260905224524 | 69 | 54 | 0.0 | 4.0 | 0.00 | 0.00 | 0.00 | 76 | 1019.4 |
| 20260905223031 | 70 | 77 | 0.0 | 5.0 | 0.00 | 0.00 | 0.00 | 71 | 1019.4 |
| 20260905221531 | 70 | 360 | 0.0 | 3.0 | 0.00 | 0.00 | 0.00 | 75 | 1019.1 |
| 20260905220014 | 71 | 66 | 1.0 | 3.0 | 0.00 | 0.00 | 0.00 | 72 | 1019.2 |
| 20260905214523 | 71 | 30 | 0.0 | 5.0 | 0.00 | 0.00 | 0.00 | 71 | 1019.2 |
| 20260905213027 | 71 | 79 | 0.0 | 2.0 | 0.00 | 0.00 | 0.00 | 73 | 1019.2 |
| 20260905211530 | 71 | 30 | 0.0 | 4.0 | 0.00 | 0.00 | 0.00 | 72 | 1019.2 |
| 20260905210032 | 71 | 88 | 1.0 | 6.0 | 0.00 | 0.00 | 0.00 | 71 | 1018.9 |
| 20260905204516 | 72 | 41 | 0.0 | 6.0 | 0.00 | 0.00 | 0.00 | 72 | 1018.8 |
| 20260905203034 | 72 | 23 | 1.0 | 6.0 | 0.00 | 0.00 | 0.00 | 68 | 1018.8 |
| 20260905201530 | 72 | 52 | 1.0 | 4.0 | 0.00 | 0.00 | 0.00 | 69 | 1019.2 |
| 20260905200037 | 73 | 71 | 1.0 | 5.0 | 0.00 | 0.00 | 0.00 | 66 | 1019.2 |
| 20260905194534 | 73 | 255 | 1.0 | 7.0 | 0.00 | 0.00 | 0.00 | 64 | 1019.4 |
| 20260905193016 | 74 | 33 | 0.0 | 4.0 | 0.00 | 0.00 | 0.00 | 62 | 1019.4 |
| 20260905191524 | 74 | 253 | 1.0 | 6.0 | 0.00 | 0.00 | 0.00 | 61 | 1019.5 |
| 20260905190039 | 74 | 41 | 2.0 | 6.0 | 0.00 | 0.00 | 0.00 | 61 | 1019.4 |
| 20260905184533 | 75 | 23 | 1.0 | 5.0 | 0.00 | 0.00 | 0.00 | 63 | 1019.5 |
| 20260905183017 | 75 | 39 | 0.0 | 5.0 | 0.00 | 0.00 | 0.00 | 67 | 1019.4 |
| 20260905181523 | 75 | 57 | 0.0 | 5.0 | 0.00 | 0.00 | 0.00 | 64 | 1019.5 |
| 20260905180009 | 75 | 39 | 1.0 | 6.0 | 0.00 | 0.00 | 0.00 | 62 | 1019.3 |
| 20260905174506 | 75 | 34 | 0.0 | 4.0 | 0.00 | 0.00 | 0.00 | 62 | 1019.4 |
| 20260905173007 | 75 | 48 | 0.0 | 4.0 | 0.00 | 0.00 | 0.00 | 63 | 1019.6 |
| 20260905171511 | 75 | 37 | 1.0 | 5.0 | 0.00 | 0.00 | 0.00 | 64 | 1019.9 |
| 20260905170010 | 75 | 40 | 0.0 | 6.0 | 0.00 | 0.00 | 0.00 | 70 | 1019.8 |
| 20260905164510 | 74 | 233 | 0.0 | 4.0 | 0.00 | 0.00 | 0.00 | 69 | 1019.8 |
| 20260905163009 | 73 | 49 | 0.0 | 5.0 | 0.00 | 0.00 | 0.00 | 70 | 1019.7 |
| 20260905161521 | 72 | 61 | 2.0 | 7.0 | 0.00 | 0.00 | 0.00 | 75 | 1019.8 |
| 20260905160011 | 70 | 224 | 0.0 | 4.0 | 0.00 | 0.00 | 0.00 | 79 | 1019.8 |
| 20260905154510 | 68 | 60 | 2.0 | 6.0 | 0.00 | 0.00 | 0.00 | 87 | 1019.9 |
| 20260905153009 | 67 | 44 | 0.0 | 4.0 | 0.00 | 0.00 | 0.00 | 92 | 1019.8 |
| 20260905151511 | 65 | 94 | 0.0 | 1.0 | 0.00 | 0.00 | 0.00 | 93 | 1019.9 |
| 20260905150012 | 64 | 20 | 0.0 | 2.0 | 0.00 | 0.00 | 0.00 | 97 | 1020.0 |
| 20260905144519 | 63 | 21 | 0.0 | 0.0 | 0.00 | 0.00 | 0.00 | 97 | 1020.1 |
| 20260905143010 | 63 | 21 | 0.0 | 1.0 | 0.00 | 0.00 | 0.00 | 97 | 1019.8 |
| 20260905141514 | 62 | 21 | 0.0 | 0.0 | 0.00 | 0.00 | 0.00 | 97 | 1019.6 |
| 20260905140019 | 61 | 21 | 0.0 | 1.0 | 0.00 | 0.00 | 0.00 | 97 | 1019.3 |
| 20260905134514 | 60 | 25 | 0.0 | 0.0 | 0.00 | 0.00 | 0.00 | 97 | 1019.2 |
| 20260905133022 | 59 | 26 | 0.0 | 0.0 | 0.00 | 0.00 | 0.00 | 97 | 1019.2 |
| 20260905131515 | 57 | 26 | 0.0 | 0.0 | 0.00 | 0.00 | 0.00 | 97 | 1019.1 |
| 20260905130013 | 56 | 25 | 0.0 | 0.0 | 0.00 | 0.00 | 0.00 | 97 | 1018.8 |
| 20260905124513 | 55 | 26 | 0.0 | 0.0 | 0.00 | 0.00 | 0.00 | 97 | 1018.8 |
| 20260905123016 | 55 | 26 | 0.0 | 0.0 | 0.00 | 0.00 | 0.00 | 97 | 1018.7 |
| 20260905121515 | 54 | 24 | 0.0 | 0.0 | 0.00 | 0.00 | 0.00 | 96 | 1018.7 |
| 20260905120030 | 54 | 26 | 0.0 | 0.0 | 0.00 | 0.01 | 0.00 | 96 | 1018.5 |
| 20260905114520 | 54 | 25 | 0.0 | 0.0 | 0.00 | 0.08 | 0.00 | 96 | 1018.3 |
| 20260905113019 | 55 | 27 | 0.0 | 0.0 | 0.00 | 0.09 | 0.00 | 96 | 1018.2 |
| 20260905111525 | 55 | 27 | 0.0 | 0.0 | 0.00 | 0.09 | 0.00 | 96 | 1018.1 |
| 20260905110022 | 55 | 27 | 0.0 | 0.0 | 0.00 | 0.09 | 0.00 | 96 | 1018.1 |
| 20260905104520 | 55 | 27 | 0.0 | 0.0 | 0.00 | 0.09 | 0.00 | 96 | 1018.0 |
| 20260905103026 | 55 | 29 | 0.0 | 0.0 | 0.00 | 0.09 | 0.00 | 96 | 1018.0 |
| 20260905101519 | 55 | 27 | 0.0 | 0.0 | 0.00 | 0.09 | 0.00 | 96 | 1018.1 |
| 20260905100023 | 56 | 28 | 0.0 | 0.0 | 0.00 | 0.09 | 0.00 | 96 | 1018.1 |
| 20260905094520 | 56 | 25 | 0.0 | 0.0 | 0.00 | 0.09 | 0.00 | 96 | 1017.9 |
| 20260905093020 | 55 | 30 | 0.0 | 0.0 | 0.00 | 0.09 | 0.00 | 96 | 1018.1 |
| 20260905091524 | 56 | 29 | 0.0 | 0.0 | 0.00 | 0.09 | 0.00 | 96 | 1018.1 |
| 20260905090020 | 56 | 26 | 0.0 | 0.0 | 0.00 | 0.09 | 0.00 | 96 | 1018.0 |
| 20260905084520 | 56 | 26 | 0.0 | 0.0 | 0.00 | 0.09 | 0.00 | 96 | 1018.2 |
| 20260905083021 | 56 | 27 | 0.0 | 0.0 | 0.00 | 0.10 | 0.00 | 96 | 1018.1 |
| 20260905081511 | 56 | 26 | 0.0 | 0.0 | 0.00 | 0.13 | 0.00 | 96 | 1018.1 |
| 20260905080028 | 56 | 27 | 0.0 | 0.0 | 0.00 | 0.18 | 0.00 | 96 | 1018.1 |
| 20260905074526 | 56 | 27 | 0.0 | 0.0 | 0.00 | 0.46 | 0.00 | 96 | 1018.1 |
| 20260905073030 | 56 | 28 | 0.0 | 0.0 | 0.00 | 0.66 | 0.00 | 96 | 1017.9 |
| 20260905071523 | 57 | 29 | 0.0 | 0.0 | 0.00 | 0.67 | 0.00 | 96 | 1017.9 |
| 20260905070025 | 57 | 28 | 0.0 | 0.0 | 0.00 | 0.70 | 0.00 | 95 | 1018.0 |
| 20260905064535 | 57 | 27 | 0.0 | 0.0 | 0.00 | 0.75 | 0.00 | 96 | 1017.9 |
| 20260905063027 | 57 | 27 | 0.0 | 0.0 | 0.00 | 0.78 | 0.00 | 96 | 1017.8 |
| 20260905061525 | 57 | 27 | 0.0 | 0.0 | 0.00 | 0.79 | 0.00 | 95 | 1017.9 |
| 20260905060011 | 57 | 30 | 0.0 | 0.0 | 0.00 | 0.79 | 0.00 | 95 | 1017.9 |
| 20260905054528 | 57 | 29 | 0.0 | 0.0 | 0.00 | 0.79 | 0.00 | 95 | 1017.9 |